FENGYUN 1C DEB, 31503

Orbit data source: Space-Track

FENGYUN 1C DEB, 31503 is space debris in SSO originally from a launch on Mon, 10 May 1999 UTC launched from the Taiyaun Space Center, China (TSC). Fengyun 1C debris stems from the Chinese weather satellite Fengyun-1C, which was intentionally destroyed by a Chinese anti-satellite missile in 2007. This event dramatically increased the amount of space debris, with thousands of trackable fragments posing hazards to satellites and human spaceflight. The Fengyun 1C debris cloud has become a focal point in discussions about space sustainability and the need for international regulations to prevent the creation of new debris.

Loading next visibility...
Identifier
31503, 1999-025BWS
Orbit
SSO
Country
Flag of CNCN / PRC
Related business
Manufacturer
Unknown
Mission
Spacecraft
Bus & Motor
Unknown
Mass
Unknown
Launch date (UTC)
1999-05-10 (27 years ago)
Launch vehicle
Unknown
Launch site
Taiyaun Space Center, China (TSC)
Object type
Payload
Rocket body
Debris
Shape & HBR
Unknown shape, 0.1 m
Radar Cross Section
Small (<0.1 m²)

Expand to show TLE details & history
Last TLE update: 3 days ago

TLE from 3 days ago
0 FENGYUN 1C DEB
1 31503U 99025BWS 26166.97074699  .00001502  00000-0  67776-3 0  9993
2 31503 100.0869  64.9306 0051491  34.0528 326.3932 14.23343056668816
Epoch: 2026-06-15T23:17Z
TLE epoch observation values (Epoch: 2026-06-15T23:17:52.539Z)
Latitude
-0.00006°
Longitude
171.21221°
Altitude
786.15 km
Speed
7.477 km/s
True Right ascension
04h 19m 43s
True Declination
0° 00' 00"
Sunlit
Object was in daylight at epoch
Visualization orbit readout
Latitude
Unknown
Longitude
Unknown
Altitude
Unknown
Speed
Unknown
Apparent Right ascension
Unknown
Apparent Declination
Unknown
Sunlit
N/A
Visualization observer readout
Local Sidereal Time
07:53:22
Azimuth
Unknown
Elevation
Unknown
Doppler factor
Unknown
Orbital elements
Apogee altitude
848.313 km
Perigee altitude
774.275 km
Semi-major axis
7,189.431 km
Eccentricity
0.00515
Inclination
100.0869°
RAAN
64.9306°
Arg. of periapsis
34.0528°
True anomaly
326.06486°
Mean anomaly
326.3932°
Eccentric anomaly
326.22921°
Mean motion
3.56042 °/min
Orbital period
101.11 mins
BSTAR
0.00067776
Loading maneuver chart data...
Computing Atmospheric mass density...
Loading historical data...
Loading historical data...
Loading historical data...
Loading historical data...
Loading historical data...
Loading historical data...
Loading historical data...

Documentation

Showing up to 5 results
|